Location: Newark
(44.1667°N, 8.2500°E)
Time: 10:27:14
(UTC+00:00)

S-56A Canister/Altair - Pass Details

Date: 15 December 2019
Orbit: 634 x 2498 km, 38.9° (Epoch: 27 January)

Event Time Altitude Azimuth Distance (km) Brightness Sun altitude
Rises 07:08:50 0° 216° (SW) 5,017 11.7 1.2°
Reaches altitude 10° 07:12:03 10° 209° (SSW) 4,261 11.4 1.7°
Maximum altitude 07:23:05 42° 144° (SE) 3,016 11.4 3.3°
Drops below altitude 10° 07:36:30 10° 82° (E) 5,166 12.5 5.2°
Sets 07:40:50 0° 76° (ENE) 6,156 12.7 5.8°
